SCP
2 1 1 1 1 0 0 0 0 1 1 1 1 1 0 0 0 1 1 1 1 1 1 1 1 1 1 2 2 2 1 1 1 2 2 2 2 2 2 2 2 2 2 2 2 1 1 1 1
1 1 1 1 1 0 0 0 1 1 1 1 1 1 0 0 1 1 1 1 1 1 1 1 1 2 1 2 2 1 1 1 1 1 2 2 2 2 2 2 2 2 1 2 1 1 1 1 1
1 1 1 1 1 1 1 1 1 1 1 1 1 0 0 0 1 2 2 2 1 1 1 1 2 2 2 2 2 2 1 1 1 1 1 1 1 1 1 1 1 1 1 1 1 1 1 1 1
1 1 2 2 1 1 1 1 1 1 1 0 0 0 0 0 1 2 2 2 2 1 1 2 3 3 3 3 2 2 2 2 1 1 1 1 1 1 1 1 1 1 1 1 1 1 1 1 1
1 2 3 3 1 1 1 1 1 1 1 0 0 1 1 1 2 2 2 2 2 1 1 2 4 4 4 4 4 4 3 3 2 2 2 1 1 1 1 1 1 1 1 1 1 1 1 1 1
2 2 3 2 1 1 1 1 1 1 1 1 1 1 1 2 3 3 2 2 2 1 1 2 3 4 5 5 5 5 5 4 4 4 3 2 1 1 1 1 1 1 1 1 1 1 1 1 1
1 2 2 1 1 1 1 1 1 1 1 1 1 1 1 2 3 3 2 2 1 1 1 2 3 4 5 5 6 6 6 5 5 5 4 2 1 1 1 1 1 1 1 1 1 1 1 1 1
1 1 1 1 1 1 1 1 1 1 1 1 1 1 1 2 3 3 2 2 1 1 1 2 2 3 4 5 6 6 6 6 5 4 3 2 2 1 1 1 1 1 1 1 1 1 1 1 1
1 1 1 1 1 1 1 1 1 1 1 1 1 1 1 2 2 2 2 1 1 2 2 2 3 3 4 4 5 6 6 5 4 3 3 2 1 1 1 1 1 1 1 1 1 1 1 1 1
1 1 1 1 1 1 1 1 1 1 1 1 1 1 1 1 2 2 2 1 2 2 2 3 3 3 4 4 4 5 5 4 3 2 2 2 1 1 1 1 1 1 1 1 1 1 1 1 1
1 1 1 1 1 1 1 1 1 1 1 1 1 1 1 1 2 2 2 1 1 2 2 3 3 3 3 3 3 4 4 3 2 2 2 1 1 1 1 1 1 1 1 0 1 1 1 1 1
1 1 2 2 1 1 1 0 0 1 1 1 1 1 1 1 1 2 2 1 1 1 1 2 2 2 2 2 2 3 4 3 2 2 1 1 1 1 1 1 1 1 0 0 0 0 1 0 0
1 1 1 1 1 1 1 0 0 1 1 1 1 1 1 1 1 2 2 1 1 1 1 1 2 1 1 1 2 2 3 3 3 2 1 1 1 1 1 1 1 1 0 0 0 0 0 0 0
0 0 0 1 1 1 1 0 0 1 1 1 1 2 2 1 1 2 2 1 1 1 1 1 1 1 1 1 1 2 2 2 2 2 2 2 1 1 1 1 1 0 0 0 0 0 0 0 0
0 0 0 1 1 1 1 1 1 1 1 1 2 3 2 1 1 2 3 2 2 1 1 1 1 1 1 1 2 1 1 2 2 2 2 2 2 1 1 1 1 1 1 0 0 0 0 0 0
0 0 0 1 1 1 1 1 1 1 1 2 3 4 3 2 1 2 4 3 3 2 2 2 2 1 1 2 2 2 2 2 2 2 2 2 1 1 1 1 1 1 1 1 0 0 0 0 0
0 0 0 1 1 1 1 1 1 1 1 2 3 3 2 2 2 3 3 3 3 3 3 3 3 2 2 2 2 2 2 2 2 1 1 1 1 1 1 1 1 1 1 1 1 0 0 0 0
0 0 0 0 1 1 1 1 1 1 2 2 3 3 2 2 2 3 3 2 3 3 3 3 3 3 2 2 2 2 3 2 2 1 1 1 1 1 1 1 1 1 1 1 1 1 0 0 0
0 0 0 0 1 1 1 1 1 1 2 2 2 2 3 3 3 3 2 2 2 2 3 3 3 3 3 3 2 2 3 2 2 1 1 1 1 1 1 1 1 1 1 1 1 1 0 0 0
0 0 0 1 1 1 1 1 1 1 1 2 2 3 4 5 4 3 3 2 2 2 3 3 3 3 2 2 2 2 3 2 2 1 1 1 1 1 2 1 1 1 1 1 1 1 1 0 0
0 0 1 1 1 1 1 1 1 1 1 2 2 4 5 5 4 4 3 2 2 3 4 4 3 3 2 2 3 3 3 3 2 1 1 1 2 2 2 1 1 1 1 1 1 1 1 1 0
0 0 1 1 1 1 1 1 1 1 1 2 3 4 5 5 4 3 3 3 3 4 5 4 4 3 3 3 3 3 3 2 2 1 2 2 2 2 1 1 1 1 1 1 1 1 1 1 0
0 0 0 0 1 1 1 1 1 1 2 2 3 3 4 4 4 4 4 4 4 5 5 5 4 4 4 4 4 3 3 3 2 2 3 3 2 1 1 1 1 1 1 1 1 1 1 1 1
0 0 0 0 1 1 1 0 0 1 1 2 3 3 4 5 6 6 5 5 6 6 5 5 4 4 4 4 4 4 4 4 4 4 4 3 2 1 1 1 1 1 1 1 1 1 1 1 1
0 0 0 0 0 0 0 0 0 1 1 2 4 5 5 6 8 8 7 7 7 6 5 5 4 5 5 5 5 6 7 6 6 6 5 3 2 2 2 2 2 2 1 1 1 1 1 1 1
0 0 0 0 0 0 0 0 0 1 1 3 5 7 7 6 6 7 7 7 7 6 5 5 4 5 5 5 6 7 8 8 8 7 7 5 3 3 3 3 2 2 1 1 1 1 1 1 1
0 0 0 0 0 0 0 0 1 1 3 4 6 7 6 5 4 4 6 7 7 6 5 5 4 5 5 6 6 7 8 9 9 9 9 7 5 4 3 4 3 2 2 1 1 1 1 1 1
1 0 0 0 0 0 0 0 1 3 4 5 6 6 5 4 3 4 6 7 7 6 6 6 5 5 6 6 6 7 8 9 10 10 10 9 6 4 4 4 3 2 2 2 1 1 1 1 1
1 1 0 0 0 0 0 0 1 4 6 6 6 6 5 4 3 4 5 6 6 7 7 7 7 6 6 6 6 7 9 10 11 11 11 9 7 5 4 4 3 2 2 2 2 2 2 2 1
1 0 0 0 0 0 0 1 2 4 7 8 8 7 5 4 3 4 5 5 6 7 9 9 8 7 6 5 5 6 8 10 11 12 12 10 7 5 4 4 3 2 2 2 2 2 2 2 1
Wind_Speed
8 5 2 1 1 2 1 1 4 6 6 7 10 10 9 6 5 5 3 9 11 8 6 8 10 10 10 10 10 11 11 12 12 12 13 13 13 14 14 13 13 13 13 13 12 12 12 11 11
4 4 1 1 2 3 1 3 7 8 9 10 11 10 9 7 7 8 6 10 11 9 6 8 11 11 11 11 11 11 11 12 12 12 12 12 12 13 13 12 12 12 12 12 12 11 11 10 10
4 3 0 1 1 2 2 5 9 10 9 7 6 6 6 6 7 5 8 13 11 8 6 8 12 11 11 11 11 11 11 11 11 11 11 11 12 12 12 12 12 11 11 11 11 10 10 10 9
1 0 1 1 0 2 4 5 9 11 8 8 9 7 5 5 5 9 13 13 12 8 6 8 13 12 11 11 11 11 11 10 10 10 10 11 11 11 11 11 11 11 10 9 9 9 9 9 8
1 1 2 2 1 1 4 7 10 10 6 8 10 8 5 4 12 14 13 13 12 8 6 8 13 12 11 11 10 10 10 10 10 10 10 10 10 10 10 10 10 10 9 9 9 9 8 8 7
1 2 2 1 1 2 4 8 12 13 11 10 10 8 3 6 13 13 12 11 11 10 7 7 12 12 11 10 10 10 9 9 9 9 9 9 9 9 9 9 9 9 8 8 8 8 8 7 6
1 1 1 1 0 2 5 7 9 11 10 7 7 7 4 6 10 12 11 11 10 9 7 5 5 7 10 10 9 9 9 8 8 8 8 8 8 8 8 8 8 9 9 8 8 7 7 6 5
2 1 1 1 2 2 4 5 7 11 9 8 6 8 7 8 10 11 10 9 8 7 6 5 4 4 4 5 8 8 8 7 7 7 7 7 7 7 7 7 7 8 8 8 7 6 6 6 5
2 2 2 2 2 1 4 8 6 6 10 6 4 7 10 13 12 12 9 8 6 6 4 4 4 4 3 3 6 6 6 6 6 5 6 5 2 2 3 5 7 7 7 7 7 6 6 5 5
2 2 5 4 4 3 4 8 6 6 9 7 9 10 12 12 12 13 12 10 8 7 6 4 5 4 4 4 3 2 2 2 2 1 2 2 2 2 3 5 6 6 6 6 6 7 6 4 2
3 5 4 3 4 4 5 5 5 9 6 11 15 14 13 12 11 12 11 10 9 8 7 5 5 5 4 2 3 1 1 1 1 2 2 2 1 1 1 1 2 2 3 2 3 3 2 2 2
4 5 5 3 3 4 4 4 5 7 8 13 17 16 13 12 10 11 11 10 8 8 7 6 6 5 4 3 3 2 1 1 1 1 2 2 1 1 1 1 1 1 1 1 1 1 2 2 3
3 4 4 3 2 3 5 5 6 7 10 13 15 14 12 11 9 8 9 9 9 8 7 7 6 5 4 3 2 3 2 2 2 2 2 2 2 2 1 1 1 1 1 1 1 1 1 2 3
3 3 2 3 3 3 8 5 4 7 12 14 14 12 11 11 10 8 8 8 8 8 7 6 6 5 5 4 3 3 2 2 2 2 2 2 2 2 2 2 1 1 1 1 2 2 1 1 2
0 1 3 1 2 3 7 3 4 9 13 14 13 12 11 10 10 10 10 10 9 8 7 7 6 5 5 4 4 3 3 3 2 2 2 2 2 2 2 2 1 1 1 1 1 1 1 1 2
2 2 2 3 2 3 7 3 5 9 11 11 11 11 10 9 10 10 10 9 9 8 7 7 7 6 5 4 3 3 3 3 2 2 1 2 2 2 2 2 1 1 1 1 1 1 1 1 1
3 1 3 3 2 3 4 4 6 9 11 10 10 10 10 9 8 9 10 10 9 9 8 7 6 6 5 4 3 3 3 3 2 2 1 1 2 2 3 2 1 1 2 1 1 1 1 1 1
4 3 3 4 2 2 2 4 6 10 11 11 10 10 10 11 10 10 10 10 9 8 8 7 6 5 5 3 2 2 2 1 1 2 1 2 2 2 3 2 1 2 2 1 1 2 1 1 1
5 4 5 5 3 2 3 4 7 8 10 10 9 9 9 10 9 10 10 10 9 8 8 7 6 5 4 3 3 2 2 1 1 1 1 2 2 2 2 2 1 2 2 1 1 2 1 1 1
5 3 4 2 1 1 2 3 4 6 9 11 12 10 9 8 7 9 9 9 9 9 8 7 7 6 5 4 3 3 3 2 2 1 1 2 2 2 3 2 2 2 2 1 1 2 1 0 1
4 5 5 3 2 4 3 2 3 4 4 7 10 11 11 11 11 10 11 10 9 9 9 8 8 7 6 5 3 3 2 2 1 1 1 1 2 2 2 3 2 2 2 1 1 1 2 1 0
5 6 6 3 3 1 2 1 6 4 2 5 8 9 10 10 9 9 10 9 9 9 9 8 7 7 6 6 5 5 4 3 3 2 1 1 1 2 3 3 3 2 1 1 0 1 1 2 0
6 5 3 2 3 1 1 2 6 2 4 6 7 10 11 11 11 11 12 11 9 8 8 7 7 6 6 6 6 6 4 3 2 2 2 1 1 1 2 2 2 2 2 1 1 1 1 1 1
3 3 5 4 4 0 4 3 5 4 8 7 7 9 10 11 10 9 9 8 7 6 6 7 7 6 6 6 6 6 6 5 4 3 3 2 1 1 1 2 2 2 2 2 1 1 1 1 1
2 5 4 5 4 4 2 2 7 7 7 8 8 7 8 10 9 9 9 8 8 8 7 7 8 6 6 6 6 6 6 6 6 5 4 3 2 1 2 2 2 2 1 1 1 1 1 1 1
4 9 7 4 4 4 2 2 6 5 3 6 7 6 6 8 9 10 11 11 10 10 8 8 8 7 7 7 7 6 6 4 4 5 4 4 3 3 2 2 2 2 2 2 2 1 1 1 1
4 4 7 7 2 0 3 3 5 1 3 5 7 6 6 7 8 9 10 9 9 9 8 8 8 7 7 7 6 5 5 5 4 4 4 3 3 3 3 3 2 2 2 2 2 1 1 1 1
6 7 6 5 4 1 2 3 4 4 4 5 6 5 5 5 6 7 8 9 8 8 8 7 7 7 6 6 6 5 5 5 5 4 5 4 4 3 4 3 3 2 2 2 2 1 1 1 0
1 2 5 5 6 6 3 6 6 8 8 8 6 6 6 5 5 5 5 6 5 5 6 6 6 6 5 5 5 5 5 5 4 4 5 4 4 4 4 3 3 2 2 2 2 2 1 1 0
5 5 7 6 4 5 5 7 5 7 6 8 8 6 7 7 6 5 5 5 5 5 5 5 5 5 5 5 5 5 4 4 4 4 4 4 4 4 4 3 3 3 2 2 3 2 1 1 1
Wind_Direction
183 174 164 180 41 42 32 62 106 85 66 69 78 83 81 66 100 132 149 139 132 135 137 128 121 115 111 109 108 106 107 110 111 112 113 114 115 116 119 122 125 129 132 134 134 133 131 132 131
165 170 172 31 63 61 24 98 90 92 116 105 81 78 74 66 80 110 120 139 134 133 132 127 122 117 114 111 108 108 110 112 113 114 115 117 120 122 124 125 126 128 131 134 135 135 135 136 136
174 194 170 55 63 138 140 111 109 105 107 97 88 65 70 98 108 124 144 142 132 129 131 131 123 119 116 115 111 110 112 114 115 116 118 121 124 125 127 129 129 129 131 133 137 139 141 141 142
130 80 14 63 68 191 147 132 117 108 82 72 90 69 61 99 117 133 139 138 131 132 134 133 127 124 121 120 117 113 113 116 116 118 120 124 127 129 131 134 133 134 136 139 141 143 144 145 144
106 57 21 24 2 134 138 127 115 104 87 91 94 92 65 64 114 130 137 135 133 135 136 135 130 129 126 124 122 118 117 119 119 119 123 127 132 135 136 139 141 142 145 147 148 149 150 150 149
60 65 53 359 349 93 113 112 103 102 108 107 103 102 87 119 126 136 137 136 138 142 144 140 137 134 132 130 126 125 125 124 126 127 129 132 138 140 142 146 149 151 154 155 154 156 157 159 158
112 65 188 209 313 101 120 110 114 122 120 118 119 102 121 142 143 139 135 135 138 142 143 143 145 140 137 135 132 131 130 131 134 138 137 138 142 148 153 156 158 161 162 164 166 163 165 169 172
153 98 264 214 120 147 133 112 121 127 116 123 121 123 152 162 145 133 129 128 131 137 144 144 144 143 143 142 139 137 137 137 140 146 146 143 147 154 162 163 168 169 170 173 177 178 180 181 184
130 92 234 208 151 184 129 112 110 104 118 129 109 126 149 144 134 129 126 123 131 139 147 144 146 147 153 154 154 148 147 148 148 150 151 142 129 151 167 170 173 177 182 185 189 194 196 194 195
130 162 226 217 179 178 140 129 128 103 106 101 101 115 134 135 136 139 142 144 149 156 161 162 157 157 158 165 150 148 148 142 133 128 143 136 150 177 177 179 177 182 187 194 201 208 208 205 189
186 205 228 227 184 162 141 136 120 121 123 141 141 143 145 142 142 144 149 154 158 161 160 167 166 164 165 164 152 162 136 117 120 129 135 137 143 163 155 150 179 194 198 199 211 217 214 194 183
201 236 231 208 178 151 154 144 117 130 151 151 149 149 149 149 153 153 153 157 157 156 163 166 166 164 169 159 157 161 149 138 151 157 140 135 137 136 146 154 174 191 202 182 190 203 201 191 189
208 247 233 216 194 172 142 134 122 128 135 139 142 146 150 153 155 153 151 153 154 159 163 166 160 160 163 151 157 148 157 159 164 142 139 139 141 148 156 160 165 186 174 171 177 183 172 173 187
212 246 251 184 151 150 131 124 107 144 138 141 149 152 155 158 156 149 152 154 157 162 164 162 158 159 152 151 151 149 154 160 154 145 150 146 149 146 140 131 138 160 174 175 162 167 162 169 171
211 340 330 187 159 154 118 96 150 157 147 149 155 157 157 161 159 158 164 162 163 161 158 157 160 158 154 150 153 146 149 144 149 164 157 144 139 134 133 131 136 165 163 143 116 101 110 132 143
359 36 313 259 150 151 114 175 195 155 148 155 162 163 161 164 165 163 162 158 157 151 152 159 158 155 152 146 145 143 139 138 143 151 148 143 135 131 127 126 144 159 122 119 123 110 106 108 125
6 296 262 276 192 152 127 185 194 163 155 168 171 168 162 162 168 167 161 160 159 156 158 159 154 156 154 149 138 132 127 131 136 139 146 154 137 126 122 123 128 115 103 95 129 100 119 124 132
252 246 251 249 230 141 157 199 184 172 165 173 176 173 168 170 179 170 163 161 159 156 158 159 156 159 152 141 120 108 104 122 125 134 146 150 139 125 122 123 116 100 90 78 88 97 92 134 167
229 247 255 249 204 156 186 193 197 178 172 172 175 176 175 180 180 167 164 163 159 157 158 162 159 164 157 151 151 141 153 158 141 137 134 132 133 135 130 124 113 104 103 117 117 114 93 50 65
226 242 269 292 258 130 170 220 217 185 188 180 174 178 178 175 170 168 166 168 167 168 168 166 166 166 167 170 167 155 151 161 162 154 123 137 125 128 137 124 125 114 107 83 75 102 96 34 92
248 208 221 205 29 31 83 344 270 251 190 179 181 180 179 177 176 173 171 173 168 174 176 173 173 169 169 160 141 121 95 78 87 110 163 175 144 133 122 122 119 105 117 127 120 130 133 156 315
254 225 205 191 114 266 126 223 263 233 206 184 188 181 184 183 177 171 168 172 176 181 175 170 172 169 168 157 149 148 151 159 180 174 163 143 133 137 135 136 125 126 116 104 109 116 133 136 176
223 222 192 176 129 64 353 148 272 202 192 207 189 185 186 184 180 178 175 177 178 175 171 171 168 170 167 162 162 158 163 172 161 144 135 146 148 157 151 147 150 142 131 133 124 89 110 138 155
200 52 26 45 73 349 241 166 260 225 198 188 185 185 182 176 172 169 166 161 163 164 167 167 163 172 172 166 166 168 170 170 155 156 158 168 172 179 160 149 158 147 145 159 159 145 114 121 122
101 87 33 3 10 258 242 150 247 247 198 175 171 181 178 168 160 157 158 162 166 170 174 172 167 172 173 171 175 179 178 176 177 177 174 169 170 180 191 165 156 158 168 158 142 120 109 115 116
203 143 158 191 216 267 324 213 254 246 159 153 156 166 164 160 159 164 170 172 172 176 177 174 175 178 179 180 186 185 182 180 182 181 176 178 181 188 180 167 160 165 167 155 140 140 157 129 135
182 182 168 141 162 159 286 289 310 356 117 141 145 144 151 158 159 163 171 171 172 174 177 177 178 181 183 184 182 180 182 178 177 174 173 175 179 175 164 165 169 175 174 170 155 150 185 148 149
174 160 103 118 144 220 284 258 235 231 183 157 146 150 147 143 144 155 168 168 171 172 173 174 174 176 177 178 179 180 184 186 178 169 175 178 179 169 164 167 176 176 170 161 154 158 179 126 153
175 130 122 129 147 149 211 259 228 200 178 160 157 155 149 142 148 147 147 151 156 157 163 167 172 171 170 173 176 177 186 186 179 179 184 179 171 162 167 173 176 178 170 156 143 156 147 135 316
166 175 148 153 196 166 169 253 244 189 177 159 153 148 147 154 157 143 142 137 138 148 161 166 171 176 183 179 174 179 178 171 170 178 180 171 167 163 163 164 162 169 167 165 162 170 158 168 212